www.pogodaiklimat.ru

Погода и климат >> Архив погоды >> Великобритания >> Камборн


ПОГОДА в Камборне

  • Прогноз погоды в Камборне
  • Монитор погоды в Камборне

АРХИВ ПОГОДЫ в Камборне

Время (UTC), дата Ветер
(напр.,м/с)
 
Видим.   Явления Облачность Т
(С)
Тd
(С)
f
(%)
Тe
(С)
Тes
(С)
Комфортность P
(гПа)
Po
(гПа)
Тmin
(С)
Tmax
(С)
R
(мм)
R24
(мм)
S
(см)
01 11.09 ЮЗ 4 12 км в посл. час дождь {морось} 10/10 180 м
[Sc]
+14.2 +13.3 94 +13 +13 1023.0 1012.5
02 11.09 ЮЗ 5 3500 м дождь {морось} 10/10 60 м
[Frnb]
+14.5 +14.2 98 +13 +13 1022.4 1011.9
03 11.09 ЮЗ 5 4500 м дождь {морось} 10/10 90 м
[Frnb]
+15.0 +14.6 97 +13 +13 1021.9 1011.4
04 11.09 ЮЗ 6 8000 м в посл. час морось н/о +15.3 +15.0 98 +14 +14 1021.3 1010.8
05 11.09 ЮЗ 6 3000 м дождь {морось} 10/10 60 м
[Frnb]
+15.6 +15.3 98 +14 +14 1021.2 1010.8
06 11.09 ЮЗ 6 2500 м слаб. морось {дождь} 10/10 60 м
[Frnb]
+15.7 +15.5 99 +14 +14 1021.5 1011.0 +11.9 0.0
07 11.09 ЮЗ 6 3500 м дождь {морось} 10/10 60 м
[Frnb]
+16.1 +15.8 98 +15 +15 1021.7 1011.2
08 11.09 З 7 3000 м дождь {морось} 10/10 90 м
[Frnb]
+16.4 +16.1 98 +15 +15 1022.2 1011.8
09 11.09 З 7 7000 м слаб. дождь {морось} 10/10 90 м
[Sc]
+16.7 +16.2 97 +15 +15 1022.7 1012.2
10 11.09 З 7 16 км слаб. дождь 10/10 240 м
[Sc]
+17.8 +16.6 93 +17 +17 1022.8 1012.4
11 11.09 З 9
{13}
18 км в посл. час дождь 10/10 240 м
[St]
+18.4 +16.5 89 +18 +18 1022.9 1012.5
12 11.09 З 8
{13}
17 км {дождь, морось} 10/10 150 м
[St]
+17.6 +16.4 93 +17 +17 1023.2 1012.8 0.0
13 11.09 З 8
{13}
7000 м слаб. дождь 10/10 150 м
[St]
+17.6 +16.5 93 +17 +17 1023.5 1013.1
14 11.09 З 8 10 км слаб. дождь 10/10 120 м
[St]
+17.9 +17.2 96 +17 +17 1023.5 1013.1
15 11.09 З 8 3500 м слаб. морось {дождь} 10/10 90 м
[Frnb]
+17.1 +16.5 96 +16 +16 1023.8 1013.4
16 11.09 З 8 1800 м слаб. морось 10/10 60 м
[Frnb]
+16.9 +16.6 98 +15 +15 1024.2 1013.8
17 11.09 З 7 2500 м слаб. морось 10/10 60 м
[Frnb]
+16.9 +16.6 98 +16 +16 1024.3 1013.8
18 11.09 З 6 4500 м слаб. морось {дождь} 10/10 60 м
[Frnb]
+16.8 +16.4 97 +16 +16 1024.6 1014.1 +18.6 0.2
19 11.09 З 4 7000 м слаб. морось н/о +16.8 +16.4 97 +16 +16 1025.0 1014.6
20 11.09 З 5 2700 м слаб. морось н/о +16.5 +16.3 99 +16 +16 1025.8 1015.4
21 11.09 З 5 17 км в посл. час морось н/о +16.6 +16.4 99 +16 +16 1026.2 1015.7
22 11.09 З 5 24 км н/о +16.6 +16.3 98 +16 +16 1026.3 1015.9
23 11.09 З 6 5000 м в посл. час морось н/о +16.4 +16.3 99 +15 +15 1026.5 1016.0
00 12.09 З 5 9000 м н/о +16.4 +16.3 99 +15 +15 1026.5 1016.0 0.0
01 12.09 ЮЗ 3 15 км н/о +16.3 +16.1 99 +16 +16 1026.7 1016.2
02 12.09 ЮЗ 4 500 м туман н/о +16.2 +16.1 99 +16 +16 1026.8 1016.3
03 12.09 ЮЗ 4 200 м слаб. дождь н/о +16.1 +16.0 99 +15 +15 1026.9 1016.4
04 12.09 ЮЗ 4 8000 м в посл. час дождь н/о +16.0 +15.7 98 +15 +15 1026.8 1016.3
05 12.09 ЮЗ 4 7000 м в посл. час морось н/о +15.9 +15.5 97 +15 +15 1027.1 1016.6
06 12.09 ЮЗ 3 20 км в посл. час морось н/о +16.0 +15.3 96 +15 +15 1027.6 1017.1 +15.9 0.0
07 12.09 ЮЗ 4 3500 м слаб. морось 10/10 60 м
[Frnb]
+16.1 +15.9 99 +15 +15 1028.2 1017.7
08 12.09 ЮЗ 6 22 км в посл. час морось 9/9 60 м
[St]
+16.1 +15.6 97 +15 +15 1028.8 1018.3
09 12.09 ЮЗ 5 19 км {морось} 9/9 180 м
[St]
+16.8 +15.7 93 +16 +16 1029.1 1018.6
10 12.09 ЮЗ 6 20 км 9/9 240 м
[St]
+17.4 +15.7 90 +17 +17 1029.4 1018.9
11 12.09 ЮЗ 7 23 км 9/8 240 м
[St Ci fib]
+19.4 +16.4 83 +21 +21 комфорт 1029.3 1018.9
12 12.09 ЮЗ 7 22 км {морось} 9/9 270 м
[St]
+17.9 +15.8 88 +17 +17 1029.4 1019.0 0.0
13 12.09 ЮЗ 7 25 км 9/9 300 м
[St]
+18.6 +15.5 82 +19 +19 1029.5 1019.1
14 12.09 ЮЗ 7 25 км 9/9 330 м
[St]
+18.4 +15.6 84 +18 +18 1029.5 1019.1
15 12.09 ЮЗ 6 23 км 9/9 360 м
[Sc Ci fib]
+18.4 +15.6 84 +18 +19 1029.5 1019.1
16 12.09 ЮЗ 6 10 км 10/10 210 м
[Frnb]
+17.5 +15.7 89 +17 +17 1029.4 1018.9
17 12.09 ЮЗ 6 2500 м слаб. морось 10/10 90 м
[Frnb]
+16.9 +16.2 96 +16 +16 1029.7 1019.2
18 12.09 ЮЗ 5 3500 м слаб. морось 10/10 90 м
[Frnb]
+16.6 +16.1 97 +16 +16 1029.8 1019.3 +19.4 0.0
19 12.09 ЮЗ 6 8000 м слаб. морось 10/10 90 м
[Frnb]
+16.6 +16.1 97 +16 +16 1030.1 1019.6
20 12.09 ЮЗ 4 6000 м в посл. час морось 10/10 60 м
[St]
+16.5 +16.3 99 +16 +16 1030.6 1020.1
21 12.09 З 4 6000 м слаб. морось 10/10 60 м
[Frnb]
+16.6 +16.3 98 +16 +16 1030.8 1020.3
22 12.09 З 4 100 м слаб. морось {туман} ?/? +16.2 +16.1 99 +15 +15 1031.1 1020.5
23 12.09 СЗ 4 1000 м слаб. морось 10/10 30 м
[Frnb]
+15.7 +15.7 100 +15 +15 1031.3 1020.8
00 13.09 СЗ 3 800 м слаб. морось {туман} ?/? +15.5 +15.4 99 +15 +15 1031.7 1021.2 0.4
01 13.09 С 4 2000 м слаб. морось 10/10 30 м
[Frnb]
+15.7 +15.6 99 +15 +15 1031.9 1021.3
02 13.09 С 5 8000 м слаб. морось 10/10 240 м
[St]
+15.5 +15.0 97 +14 +14 1032.2 1021.7
03 13.09 С 5 10 км в посл. час дождь 10/10 210 м
[St]
+15.7 +15.0 96 +15 +15 1032.6 1022.0
04 13.09 С 5 19 км в посл. час морось н/о +15.4 +14.7 96 +14 +14 1032.9 1022.3
05 13.09 СВ 5 20 км 4/4 300 м
[St]
+14.7 +13.0 90 +13 +13 1033.3 1022.7
06 13.09 СВ 4 20 км {дождь, морось} 6/6 360 м
[St Ci fib]
+14.7 +13.0 90 +14 +14 1033.7 1023.1 +14.5 1
07 13.09 СВ 4 25 км 6/6 360 м
[Sc]
+14.8 +12.9 88 +14 +14 1034.3 1023.6
08 13.09 СВ 4 35 км 6/6 600 м
[Cu Sc]
+15.6 +12.5 82 +15 +15 1035.0 1024.4
09 13.09 СВ 6 45 км 4/4 500 м
[Cu med, cong]
+16.1 +11.7 75 +15 +16 1035.2 1024.6
10 13.09 СВ 6 45 км н/о +16.5 +11.2 71 +15 +15 1035.6 1025.0
11 13.09 С 6 50 км 3/3 750 м
[Cu med, cong]
+16.6 +11.3 71 +16 +18 1035.5 1025.0
12 13.09 С 5 40 км 3/3 900 м
[Cu med, cong]
+16.8 +12.5 76 +16 +19 1035.4 1024.8
13 13.09 С 6 35 км 1/1 750 м
[Cu med, cong]
+17.5 +13.2 76 +17 +21 1035.0 1024.5
14 13.09 С 5 35 км н/о +17.6 +13.3 76 +17 +17 1035.1 1024.6
15 13.09 С 7 30 км н/о +17.0 +12.6 75 +16 +16 1035.1 1024.6
16 13.09 С 6 40 км 3/3 900 м
[Cu med, cong]
+16.6 +11.9 74 +16 +17 1034.9 1024.3
17 13.09 СВ 5 40 км 3/3 750 м
[Cu med, cong]
+16.4 +11.9 75 +16 +16 1034.5 1024.0
18 13.09 СВ 3 30 км 1/1 900 м
[Cu med, cong Ac As]
+15.3 +12.2 82 +15 +15 1034.8 1024.2 +17.9
19 13.09 СВ 3 30 км 1/1 930 м
[Sc Ac trans]
+14.3 +12.1 87 +13 +13 1035.1 1024.5
20 13.09 СВ 3 22 км 3/3 1050 м
[Sc Ac trans]
+13.8 +11.3 85 +13 +13 1035.6 1024.9
21 13.09 В 3 30 км 1/1 1050 м
[Sc]
+13.2 +10.7 85 +12 +12 1035.2 1024.5
22 13.09 В 3 25 км 1/1 1050 м
[Sc]
+13.1 +11.4 89 +12 +12 1035.0 1024.3
23 13.09 В 2 30 км ясно +12.7 +10.8 88 +12 +12 1034.6 1023.9
00 14.09 СВ 2 15 км ясно +11.0 +10.4 96 +10 +10 1034.9 1024.1
01 14.09 СВ 3 20 км ясно +11.3 +10.4 94 +10 +10 1034.6 1023.8
02 14.09 СВ 2 40 км ясно +12.0 +8.5 79 +11 +11 1034.2 1023.5
03 14.09 В 3 40 км ясно +12.7 +6.5 66 +12 +12 1033.5 1022.8
04 14.09 В 4 40 км ясно +13.1 +6.5 64 +11 +11 1033.3 1022.7
05 14.09 В 5 40 км ясно +13.9 +8.3 69 +12 +12 1033.2 1022.5
06 14.09 В 5 40 км 1/1 1200 м
[Sc Ac trans Ci fib]
+14.1 +10.4 78 +12 +12 1032.8 1022.2 +11.0
07 14.09 В 5 40 км 1/0
[Ac trans Ci fib]
+14.3 +11.6 84 +13 +13 1032.8 1022.2
08 14.09 В 6 30 км 1/0
[Ci fib]
+15.4 +12.6 83 +14 +15 1032.8 1022.3
09 14.09 В 7 30 км 1/0
[Ci fib]
+16.3 +13.0 81 +15 +16 1032.8 1022.3
10 14.09 В 6 30 км 1/0
[Ac trans Ci fib]
+17.6 +12.7 73 +17 +20 1032.7 1022.2
11 14.09 В 6 35 км 1/0
[Ci fib]
+18.5 +12.2 67 +19 +22 1032.1 1021.7
12 14.09 ЮВ 5 40 км 1/0
[Ci fib]
+19.2 +12.2 64 +20 +26 1031.6 1021.2
13 14.09 В 4 40 км 1/0
[Ci fib]
+19.5 +13.3 67 +21 +27 комфорт 1031.5 1021.1
14 14.09 СВ 3 40 км 4/4 750 м
[Cu med, cong Ac trans]
+19.2 +12.9 67 +21 +25 комфорт 1031.0 1020.5
15 14.09 С 2 45 км 4/4 750 м
[Cu med, cong Ac trans]
+19.9 +12.4 62 +22 +26 комфорт 1030.3 1019.9
16 14.09 С 2 35 км н/о +19.3 +14.2 72 +21 +21 комфорт 1029.8 1019.4
17 14.09 С 4 35 км 4/4 750 м
[Cu med, cong Ci fib]
+17.8 +13.3 75 +18 +18 1029.8 1019.3
18 14.09 С 3 35 км 3/3 750 м
[Cu med, cong Ci fib]
+16.9 +14.3 85 +17 +17 1030.0 1019.5 +20.3
19 14.09 СЗ 1 18 км 3/1 800 м
[Sc Ci fib]
+15.4 +14.3 93 +16 +16 1030.1 1019.5
20 14.09 З 2 5000 м дымка 4/4 240 м
[St Ci fib]
+14.3 +14.0 98 +14 +14 1030.0 1019.4
21 14.09 С 2 3000 м местами туман поземный 4/4 210 м
[St Ci fib]
+13.9 +13.7 99 +14 +14 1030.0 1019.4
22 14.09 З 1 700 м осадки 5/5 120 м
[St]
+12.0 +11.9 99 +13 +13 1029.7 1019.0
23 14.09 С 1 200 м туман местами 8/8 150 м
[St]
+11.8 +11.7 99 +12 +12 1029.6 1018.9
00 15.09 С 2 7000 м в посл. час туман 8/8 240 м
[St]
+12.9 +12.7 99 +12 +12 1029.3 1018.7
01 15.09 С 1 2000 м туман поземный 4/4 180 м
[St]
+12.4 +12.3 99 +13 +13 1028.6 1017.9
02 15.09 СЗ 2 3500 м дымка 9/9 180 м
[St]
+13.2 +13.1 99 +13 +13 1028.2 1017.6
03 15.09 СЗ 2 5000 м дымка 9/9 150 м
[St]
+13.7 +13.4 98 +13 +13 1027.9 1017.3
04 15.09 З 1 2500 м дымка 8/8 180 м
[St]
+13.0 +12.7 98 +13 +13 1027.6 1016.9
05 15.09 СЗ 2 13 км н/о +14.0 +13.4 96 +13 +13 1027.5 1016.9
06 15.09 СЗ 3 15 км 10/10 270 м
[St]
+14.0 +12.8 92 +13 +13 1027.7 1017.1 +11.5
07 15.09 СЗ 3 15 км 10/10 240 м
[St]
+13.8 +12.9 94 +13 +13 1027.6 1017.0
08 15.09 СЗ 3 25 км 9/9 300 м
[St]
+14.3 +12.4 88 +13 +13 1027.7 1017.2
09 15.09 СЗ 3 35 км 6/6 360 м
[Sc Ci fib]
+14.7 +11.8 83 +14 +15 1027.9 1017.3
10 15.09 СЗ 3 35 км 6/6 400 м
[Sc Ci fib]
+15.5 +11.7 78 +15 +17 1027.8 1017.3
11 15.09 СЗ 4 25 км 9/9 240 м
[St]
+15.4 +13.2 87 +14 +15 1027.7 1017.2
12 15.09 СЗ 3 25 км 9/9 210 м
[St]
+15.4 +13.2 87 +15 +16 1027.6 1017.0
13 15.09 СЗ 3 20 км 10/10 150 м
[St]
+15.3 +13.8 91 +15 +15 1027.1 1016.6
14 15.09 СЗ 3 18 км 10/10 150 м
[St]
+15.4 +13.9 91 +15 +15 1026.7 1016.2
15 15.09 СЗ 3 6000 м слаб. морось 10/10 120 м
[Frnb]
+15.2 +14.0 93 +15 +15 1026.4 1015.9
16 15.09 СЗ 3 5000 м слаб. морось 10/10 90 м
[Frnb]
+15.2 +14.3 94 +14 +14 1025.9 1015.4
17 15.09 СЗ 4 5000 м слаб. морось 10/10 120 м
[Frnb]
+15.1 +14.2 94 +14 +14 1025.4 1014.9
18 15.09 СЗ 3 6000 м слаб. морось 10/10 90 м
[Frnb]
+14.9 +14.0 94 +14 +14 1025.5 1015.0 +16.2 0.0
19 15.09 СЗ 3 4000 м слаб. морось 10/10 90 м
[Frnb]
+14.4 +14.1 98 +13 +13 1025.5 1015.0
20 15.09 СЗ 3 3000 м слаб. морось 10/10 60 м
[Frnb]
+14.2 +14.0 99 +13 +13 1025.9 1015.4
21 15.09 СЗ 2 4000 м слаб. морось 10/10 60 м
[Frnb]
+14.0 +13.8 99 +13 +13 1025.8 1015.2
22 15.09 СЗ 2 3000 м слаб. морось 10/10 60 м
[Frnb]
+13.9 +13.7 99 +14 +14 1025.8 1015.3
23 15.09 З 3 20 км слаб. морось 10/10 60 м
[Frnb]
+13.6 +13.4 99 +12 +12 1025.6 1015.1
00 16.09 СЗ 2 1000 м слаб. морось 10/10 60 м
[Frnb]
+13.6 +13.5 99 +13 +13 1025.4 1014.9 0.2
01 16.09 СЗ 4 15 км слаб. морось 10/10 60 м
[Frnb]
+13.8 +13.8 100 +12 +12 1025.4 1014.8
02 16.09 СЗ 3 2000 м слаб. морось 10/10 60 м
[Frnb]
+13.9 +13.8 99 +13 +13 1024.8 1014.2
03 16.09 СЗ 3 20 км слаб. морось 10/10 30 м
[Frnb]
+14.1 +14.0 99 +13 +13 1024.5 1013.9
04 16.09 СЗ 4 15 км слаб. морось 10/10 60 м
[Frnb]
+14.0 +13.9 99 +12 +12 1024.0 1013.5
05 16.09 СЗ 4 15 км слаб. морось 10/10 60 м
[Frnb]
+14.1 +14.1 100 +13 +13 1023.9 1013.4
06 16.09 СЗ 3 5000 м слаб. морось 10/10 60 м
[Frnb]
+14.3 +14.2 99 +13 +13 1023.8 1013.3 +13.5 0.4
07 16.09 СЗ 2 300 м туман н/о +14.6 +14.5 99 +14 +14 1024.1 1013.6
08 16.09 СЗ 3 25 км в посл. час туман 9/9 60 м
[Sc]
+15.2 +15.1 99 +15 +15 1024.2 1013.7
09 16.09 З 3 40 км {морось, туман} 9/9 180 м
[Sc]
+15.3 +14.7 96 +15 +15 1024.6 1014.1
10 16.09 СЗ 3 50 км 9/9 240 м
[St]
+15.8 +14.3 91 +15 +16 1024.9 1014.4
11 16.09 СЗ 4 3500 м слаб. морось 10/10 90 м
[Frnb]
+16.0 +15.2 95 +15 +15 1024.7 1014.2
12 16.09 З 4 5000 м в посл. час морось {туман} 10/10 90 м
[St]
+16.4 +15.3 93 +16 +16 1024.6 1014.1 0.2
13 16.09 СЗ 5 30 км 9/9 150 м
[St]
+16.8 +15.1 90 +16 +17 1024.5 1014.0
14 16.09 З 3 4000 м слаб. морось 10/10 90 м
[Frnb]
+16.3 +15.2 93 +16 +16 1024.1 1013.7
15 16.09 З 4 2500 м слаб. морось 10/10 60 м
[Frnb]
+16.3 +15.8 97 +16 +16 1024.0 1013.5
16 16.09 СЗ 3 500 м морось 10/10 <50 м
[Frnb]
+16.0 +15.8 99 +15 +15 1023.8 1013.3
17 16.09 СЗ 3 600 м слаб. морось 10/10 <50 м
[Frnb]
+15.9 +15.8 99 +15 +15 1023.8 1013.3
18 16.09 СЗ 3 100 м слаб. морось {дождь} 10/10 <50 м
[Frnb]
+15.8 +15.7 99 +15 +15 1023.7 1013.3 +17.0 0.6
19 16.09 С 3 200 м слаб. морось 10/10 30 м
[Frnb]
+15.6 +15.5 99 +15 +15 1023.9 1013.4
20 16.09 С 3 200 м слаб. морось 10/10 30 м
[Frnb]
+15.6 +15.5 99 +15 +15 1024.2 1013.7
21 16.09 С 2 500 м слаб. морось 10/10 30 м
[Frnb]
+15.6 +15.5 99 +15 +15 1024.5 1014.1
22 16.09 С 2 4000 м слаб. морось 10/10 30 м
[Cu med, cong]
+15.7 +15.7 100 +16 +16 1024.4 1013.9
23 16.09 С 3 3500 м морось 10/10 60 м
[Frnb]
+15.5 +15.4 99 +15 +15 1024.3 1013.8
00 17.09 С 4 3000 м морось 9/9 60 м
[Frnb]
+15.0 +14.7 98 +14 +14 1024.1 1013.6 0.6
01 17.09 С 4 20 км в посл. час морось 10/10 240 м
[Cu med, cong]
+15.1 +14.2 94 +14 +14 1024.4 1013.9
02 17.09 С 5 25 км 10/10 240 м
[Cu med, cong]
+14.8 +13.7 93 +13 +13 1024.2 1013.7
03 17.09 С 4 30 км {морось} 10/10 300 м
[Cu med, cong]
+14.4 +12.9 91 +13 +13 1024.4 1013.8
04 17.09 С 3 30 км 10/10 360 м
[Cu med, cong]
+14.0 +12.3 89 +13 +13 1024.3 1013.7
05 17.09 С 3 30 км 10/10 360 м
[Cu med, cong]
+13.4 +12.1 92 +12 +12 1024.2 1013.6
06 17.09 СВ 2 40 км {морось} 6/6 450 м
[Cu med, cong Ac As]
+13.6 +12.1 91 +13 +13 1024.5 1013.9 +13.4 0.6
07 17.09 СВ 2 30 км 9/9 300 м
[Sc]
+13.8 +12.6 92 +13 +13 1025.1 1014.5
08 17.09 СВ 3 30 км 9/9 750 м
[Sc]
+14.8 +12.9 88 +14 +14 1025.4 1014.9
09 17.09 СВ 4 35 км 8/8 300 м
[Sc]
+16.2 +13.8 86 +16 +16 1025.9 1015.4
10 17.09 СВ 3 35 км 8/8 270 м
[St]
+16.7 +14.1 85 +16 +17 1026.1 1015.6
11 17.09 В 3 35 км 8/8 360 м
[Cu Sc]
+17.5 +14.4 82 +17 +19 1025.9 1015.5
12 17.09 С 4 25 км 5/5 500 м
[Cu Sc]
+16.5 +13.8 84 +16 +19 1025.9 1015.5
13 17.09 С 6 35 км 3/3 600 м
[Sc]
+16.9 +12.2 74 +16 +18 1025.9 1015.5
14 17.09 СВ 6 45 км н/о +17.1 +11.9 71 +16 +16 1025.9 1015.5
15 17.09 СВ 7 30 км 1/1 600 м
[Sc]
+17.2 +12.4 73 +16 +18 1025.8 1015.4
16 17.09 С 6 30 км 1/1 600 м
[Sc]
+15.9 +11.2 74 +15 +16 1025.7 1015.2
17 17.09 СВ 6 30 км 1/1 600 м
[Sc]
+15.7 +11.1 74 +14 +15 1025.8 1015.3
18 17.09 СВ 5 30 км ясно +14.9 +10.8 76 +13 +13 1025.8 1015.3 +18.2
19 17.09 СВ 3 35 км ясно +13.7 +10.4 80 +13 +13 1025.9 1015.4
20 17.09 СВ 4 35 км ясно +13.3 +10.3 82 +12 +12 1026.4 1015.9
21 17.09 СВ 4 35 км ясно +12.5 +10.2 86 +11 +11 1026.8 1016.1
22 17.09 СВ 4 35 км ясно +12.2 +9.5 84 +10 +10 1027.2 1016.6
23 17.09 СВ 4 35 км ясно +11.7 +9.2 85 +10 +10 1027.3 1016.6
00 18.09 СВ 2 35 км ясно +11.6 +8.8 83 +11 +11 1027.3 1016.6

 

Местоположение метеостанции Камборн (Великобритания): широта 50.22 долгота -5.32 высота над уровнем моря 88 м.

В архиве по умолчанию представлена погода в Камборне за последнюю неделю. Архивные данные за месяц целиком и за предыдущие месяцы, начиная с января 2011 года, Вы можете получить, выбрав интересующий диапазон дат из раскрывающегося списка и нажав кнопку "Ввод!".


*Определитесь, кто Вы:
робот инопланетянин человек

Внимание! Время в таблицах - всемирное. Для получения местного времени необходимо прибавить поправку, которая равна 0 ч.

Смотрите также архив погоды в соседних городах и на ближайших метеорологических станциях:

Погода на Базе Culdrose (Великобритания) (16 км)
Погода в Кардинхеме (Великобритания) (56 км)
Погода на Силли (Великобритания) (78 км)
Погода в Плимуте (Великобритания) (87 км)
Погода на Базе Chivenor (Великобритания) (126 км)
Погода в Аэропорту Эксетер (Великобритания) (146 км)
Погода в Аэропорту Эксетер 2 (Великобритания) (146 км)
Погода в Лискомбе (Великобритания) (154 км)
Погода в Данкесуэлле (Великобритания) (164 км)
Погода в Милфорд-Хейвен (Великобритания) (166 км)

Пояснения к столбцам:

Ветер - указаны скорость ветра в м/с - средняя за 10 мин, порывы в срок и между сроками (в фигурных скобках) и направление, откуда дует ветер: С - северный, СВ - северо-восточный, В - восточный, ЮВ - юго-восточный, Ю - южный, ЮЗ - юго-западный, З - западный, СЗ - северо-западный.
Видимость - горизонтальная дальность видимости в метрах или километрах. При видимости от 1 до 10 км при отсутствии осадков обычно наблюдается дымка, при ухудшении видимости до 1 км и менее - туман. В сухую погоду видимость может ухудшаться дымом, пылью или мглою.
Явления - указаны атмосферные явления, наблюдавшиеся в срок или в последний час перед сроком; фигурными скобками обозначены явления, наблюдавшиеся между сроками (за 1-3 часа до срока); квадратными скобками обозначены град или гололедные отложения с указанием их диаметра в мм.
Облачность - указаны через наклонную черту общая и нижняя облачность в баллах и высота нижней границы облаков в метрах; квадратными скобками обозначены формы облаков: Ci - перистые, Cs - перисто-слоистые, Cc - перисто-кучевые, Ac - высококучевые, As - высокослоистые, Sc - слоисто-кучевые, Ns - слоисто-дождевые, Cu - кучевые, Cb - кучево-дождевые. Подробнее классификацию облаков см. в Атласе облаков (PDF).
T - Температура воздуха - температура, измеренная на высоте 2 м над землей.
Td - Температура точки росы - температура, при понижении до которой содержащийся в воздухе водяной пар достигнет насыщения.
f - Относительная влажность воздуха - влажноcть воздуха, измеренная на высоте 2 м над землей.
Te - Эффективная температура - температура, которую ощущает одетый по сезону человек в тени. Характеристика душности погоды. При расчете учитывается влияние влажности воздуха и скорости ветра на теплоощущения человека.
Tes - Эффективная температура на солнце - температура, которую ощущает человек, с поправкой на солнечный нагрев. Характеристика знойности погоды. Зависит от высоты солнца над горизонтом, облачности и скорости ветра. Ночью, в пасмурную погоду, а также при ветре 12 м/с и более поправка равна нулю.
P - Атмосферное давление - приведенное к уровню моря атмосферное давление.
Po - Атмосферное давление - измеренное на уровне метеостанции атмосферное давление.
Tmin - Минимальная температура - минимум температуры воздуха на высоте 2 м над землей.
Tmax - Максимальная температура - максимум температуры воздуха на высоте 2 м над землей.
R - Количество осадков - Количество выпавших осадков за период времени, мм. При наведении курсора мыши на число - период времени, за который выпало указанное количество осадков.
R24 - Количество осадков - Количество выпавших осадков за 24 часа, мм.
S - Снежный покров - Высота снежного покрова, см. При наведении курсора мыши на число - состояние снежного покрова и степень покрытия местности в баллах.